When you browse on this site, cookies collect data to enhance your experience and personalize the content and advertising you see.
Visit our Privacy Policy to learn more. By continuing to use the site, you agree to this use of cookies and data.
  • In Hungary
  • List of Countries
  • For 7 days
  • Water Temperature
  • Weather Map
  • News
  • Weather Widgets
  • user-avatar
    Login

    Hourly Weather Ampuis

    Today, 13 December, Friday

    Time Temperature Precipitation Wind Pressure Humidity
    00:00 +2°C° 0 mm 5 mps 717 mmHg 90%
    01:00 +3°C° 0.5 mm 5 mps 716 mmHg 91%
    02:00 +3°C° 0.5 mm 5 mps 714 mmHg 92%
    03:00 +3°C° 0.5 mm 6 mps 713 mmHg 93%
    04:00 +4°C° 1.7 mm 6 mps 713 mmHg 93%
    05:00 +4°C° 1.7 mm 6 mps 712 mmHg 92%
    06:00 +5°C° 1.7 mm 6 mps 712 mmHg 91%
    07:00 +6°C° 0.3 mm 5 mps 713 mmHg 88%
    08:00 +6°C° 0.3 mm 4 mps 714 mmHg 86%
    09:00 +7°C° 0.3 mm 3 mps 714 mmHg 83%
    10:00 +6°C° 0.3 mm 4 mps 715 mmHg 82%
    11:00 +6°C° 0.3 mm 5 mps 716 mmHg 80%
    12:00 +4°C° 0.3 mm 6 mps 716 mmHg 79%
    13:00 +4°C° 0.4 mm 6 mps 717 mmHg 82%
    14:00 +3°C° 0.4 mm 6 mps 717 mmHg 84%
    15:00 +3°C° 0.4 mm 5 mps 718 mmHg 86%
    16:00 +2°C° 0.2 mm 5 mps 719 mmHg 87%
    17:00 +3°C° 0.2 mm 4 mps 720 mmHg 88%
    18:00 +2°C° 0.2 mm 3 mps 721 mmHg 89%
    19:00 +3°C° 0.2 mm 2 mps 721 mmHg 91%
    20:00 +3°C° 0.2 mm 2 mps 722 mmHg 92%
    21:00 +4°C° 0.2 mm 1 mps 723 mmHg 94%
    22:00 +3°C° 1.4 mm 2 mps 723 mmHg 94%
    23:00 +3°C° 1.4 mm 2 mps 723 mmHg 95%

    Tomorrow, 14 December, Saturday

    Time Temperature Precipitation Wind Pressure Humidity
    00:00 +2°C° 1.4 mm 3 mps 723 mmHg 96%
    01:00 +3°C° 1.4 mm 3 mps 723 mmHg 95%
    02:00 +3°C° 1.4 mm 3 mps 723 mmHg 95%
    03:00 +3°C° 1.4 mm 3 mps 723 mmHg 94%
    04:00 +4°C° 0.1 mm 3 mps 724 mmHg 94%
    05:00 +4°C° 0.1 mm 3 mps 724 mmHg 93%
    06:00 +5°C° 0.1 mm 3 mps 725 mmHg 92%
    07:00 +7°C° 0 mm 3 mps 725 mmHg 91%
    08:00 +7°C° 0 mm 3 mps 726 mmHg 89%
    09:00 +8°C° 0 mm 2 mps 727 mmHg 88%
    10:00 +9°C° 0.1 mm 2 mps 727 mmHg 86%
    11:00 +10°C° 0.1 mm 3 mps 728 mmHg 84%
    12:00 +11°C° 0.1 mm 3 mps 728 mmHg 82%
    13:00 +11°C° 0.1 mm 3 mps 728 mmHg 84%
    14:00 +10°C° 0.1 mm 3 mps 728 mmHg 87%
    15:00 +10°C° 0.1 mm 4 mps 728 mmHg 89%
    16:00 +10°C° 0 mm 3 mps 728 mmHg 89%
    17:00 +9°C° 0 mm 3 mps 729 mmHg 88%
    18:00 +9°C° 0 mm 3 mps 729 mmHg 88%
    19:00 +9°C° 0 mm 3 mps 729 mmHg 88%
    20:00 +9°C° 0 mm 3 mps 729 mmHg 88%
    21:00 +9°C° 0 mm 3 mps 729 mmHg 88%
    22:00 +8°C° 0 mm 3 mps 729 mmHg 87%
    23:00 +8°C° 0 mm 3 mps 729 mmHg 86%

    Day after tomorrow, 15 December, Sunday

    Time Temperature Precipitation Wind Pressure Humidity
    00:00 +8°C° 0 mm 3 mps 729 mmHg 85%
    01:00 +8°C° 0 mm 3 mps 729 mmHg 86%
    02:00 +8°C° 0 mm 3 mps 729 mmHg 86%
    03:00 +7°C° 0 mm 3 mps 729 mmHg 87%
    04:00 +7°C° 0 mm 3 mps 729 mmHg 87%
    05:00 +7°C° 0 mm 3 mps 729 mmHg 86%
    06:00 +7°C° 0 mm 3 mps 730 mmHg 86%
    07:00 +8°C° 0 mm 3 mps 730 mmHg 84%
    08:00 +8°C° 0 mm 3 mps 730 mmHg 83%
    09:00 +9°C° 0 mm 3 mps 731 mmHg 82%
    10:00 +10°C° 0 mm 3 mps 731 mmHg 78%
    11:00 +11°C° 0 mm 4 mps 731 mmHg 75%
    12:00 +12°C° 0 mm 4 mps 730 mmHg 72%
    13:00 +12°C° 0 mm 4 mps 730 mmHg 74%
    14:00 +11°C° 0 mm 3 mps 730 mmHg 77%
    15:00 +11°C° 0 mm 3 mps 730 mmHg 79%
    16:00 +10°C° 0 mm 3 mps 730 mmHg 81%
    17:00 +9°C° 0 mm 3 mps 730 mmHg 83%
    18:00 +9°C° 0 mm 3 mps 730 mmHg 86%
    19:00 +8°C° 0 mm 3 mps 730 mmHg 86%
    20:00 +8°C° 0 mm 3 mps 731 mmHg 86%
    21:00 +8°C° 0 mm 3 mps 731 mmHg 86%
    22:00 +7°C° 0 mm 4 mps 731 mmHg 86%
    23:00 +7°C° 0 mm 4 mps 731 mmHg 86%

    16 December, Monday

    Time Temperature Precipitation Wind Pressure Humidity
    00:00 +8°C° 0 mm 4 mps 730 mmHg 86%
    01:00 +8°C° 0 mm 4 mps 730 mmHg 85%
    02:00 +8°C° 0 mm 4 mps 730 mmHg 84%
    03:00 +8°C° 0 mm 4 mps 730 mmHg 82%
    04:00 +8°C° 0 mm 5 mps 730 mmHg 81%
    05:00 +8°C° 0 mm 6 mps 729 mmHg 80%
    06:00 +8°C° 0 mm 6 mps 729 mmHg 78%
    07:00 +9°C° 0 mm 7 mps 729 mmHg 77%
    08:00 +9°C° 0 mm 8 mps 729 mmHg 76%
    09:00 +10°C° 0 mm 9 mps 729 mmHg 75%
    10:00 +11°C° 0 mm 10 mps 728 mmHg 73%
    11:00 +11°C° 0 mm 10 mps 728 mmHg 72%
    12:00 +12°C° 0 mm 10 mps 728 mmHg 70%
    13:00 +11°C° 0 mm 9 mps 728 mmHg 71%
    14:00 +11°C° 0 mm 8 mps 727 mmHg 72%
    15:00 +11°C° 0 mm 8 mps 727 mmHg 72%
    16:00 +11°C° 0 mm 7 mps 727 mmHg 72%
    17:00 +11°C° 0 mm 7 mps 727 mmHg 71%
    18:00 +10°C° 0 mm 6 mps 727 mmHg 70%
    19:00 +10°C° 0 mm 6 mps 727 mmHg 68%
    20:00 +10°C° 0 mm 7 mps 727 mmHg 66%
    21:00 +10°C° 0 mm 7 mps 726 mmHg 64%
    22:00 +10°C° 0 mm 7 mps 726 mmHg 65%
    23:00 +10°C° 0 mm 6 mps 726 mmHg 67%

    17 December, Tuesday

    Time Temperature Precipitation Wind Pressure Humidity
    00:00 +10°C° 0 mm 6 mps 726 mmHg 68%
    01:00 +10°C° 0 mm 5 mps 726 mmHg 67%
    02:00 +9°C° 0 mm 5 mps 726 mmHg 67%
    03:00 +10°C° 0 mm 4 mps 726 mmHg 67%
    04:00 +10°C° 0 mm 4 mps 726 mmHg 68%
    05:00 +10°C° 0 mm 3 mps 726 mmHg 70%
    06:00 +9°C° 0 mm 3 mps 726 mmHg 71%
    07:00 +10°C° 0 mm 3 mps 726 mmHg 72%
    08:00 +10°C° 0 mm 3 mps 726 mmHg 72%
    09:00 +10°C° 0 mm 2 mps 726 mmHg 73%
    10:00 +11°C° 0 mm 3 mps 726 mmHg 70%
    11:00 +12°C° 0 mm 4 mps 726 mmHg 67%
    12:00 +13°C° 0 mm 5 mps 726 mmHg 65%
    13:00 +13°C° 0 mm 4 mps 726 mmHg 67%
    14:00 +13°C° 0 mm 3 mps 726 mmHg 70%
    15:00 +12°C° 0 mm 3 mps 726 mmHg 72%
    16:00 +12°C° 0 mm 2 mps 726 mmHg 75%
    17:00 +12°C° 0 mm 2 mps 726 mmHg 77%
    18:00 +11°C° 0 mm 1 mps 726 mmHg 80%
    19:00 +10°C° 0 mm 2 mps 727 mmHg 81%
    20:00 +9°C° 0 mm 2 mps 727 mmHg 82%
    21:00 +9°C° 0 mm 2 mps 727 mmHg 83%
    22:00 +9°C° 0 mm 2 mps 727 mmHg 82%
    23:00 +10°C° 0 mm 1 mps 727 mmHg 82%

    18 December, Wednesday

    Time Temperature Precipitation Wind Pressure Humidity
    00:00 +10°C° 0 mm 1 mps 727 mmHg 82%
    01:00 +9°C° 0 mm 1 mps 727 mmHg 82%
    02:00 +9°C° 0 mm 1 mps 727 mmHg 82%
    03:00 +9°C° 0 mm 1 mps 727 mmHg 81%
    04:00 +9°C° 0.3 mm 1 mps 727 mmHg 82%
    05:00 +9°C° 0.3 mm 1 mps 728 mmHg 82%
    06:00 +9°C° 0.3 mm 1 mps 728 mmHg 82%
    07:00 +10°C° 0.1 mm 1 mps 728 mmHg 82%
    08:00 +10°C° 0.1 mm 1 mps 729 mmHg 83%
    09:00 +9°C° 0.1 mm 0 mps 729 mmHg 83%
    10:00 +11°C° 0.1 mm 1 mps 729 mmHg 80%
    11:00 +12°C° 0.1 mm 1 mps 729 mmHg 78%
    12:00 +12°C° 0.1 mm 1 mps 729 mmHg 75%
    13:00 +12°C° 0 mm 1 mps 729 mmHg 78%
    14:00 +12°C° 0 mm 1 mps 729 mmHg 80%
    15:00 +11°C° 0 mm 1 mps 729 mmHg 83%
    16:00 +11°C° 0.1 mm 1 mps 729 mmHg 85%
    17:00 +10°C° 0.1 mm 1 mps 728 mmHg 86%
    18:00 +9°C° 0.1 mm 1 mps 728 mmHg 88%
    19:00 +9°C° 0 mm 1 mps 728 mmHg 89%
    20:00 +8°C° 0 mm 1 mps 728 mmHg 90%
    21:00 +8°C° 0 mm 1 mps 728 mmHg 91%
    22:00 +8°C° 0 mm 1 mps 727 mmHg 92%
    23:00 +7°C° 0 mm 1 mps 727 mmHg 92%
    Show more